User: anonymous   Login
Location: Veyrier
(46.1830°N, 6.2000°E)
Time: 07:23:48
(UTC+02:00)
Language:

Iridium 98 - Orbit

View from above orbital plane
View from above orbital plane
View from above satellite
View from above satellite

Ground track
Ground track

The orbit data is extracted from the following two-line orbital elements,

1 27451U 02031B   16208.47659209  .00000144  00000-0  44181-4 0  9995
2 27451  86.3994 158.3824 0002266  87.5329  50.7682 14.34220673744613
Epoch (UTC): 26 July 2016 11:26:17
Eccentricity: 0.0002266
inclination: 86.3994°
perigee height: 776 km
apogee height: 779 km
right ascension of ascending node: 158.3824°
argument of perigee: 87.5329°
revolutions per day: 14.34220673
mean anomaly at epoch: 50.7682°
orbit number at epoch: 74461

The dashed part of the orbit path shows where the satellite is in the earth's shadow,  

DLR